Location: Gorze? G�rny
(49.8500°N, 19.5000°E)
Time: 12:37:40
(UTC+00:00)

Cosmos 2218 Rocket - Pass Details

Date: 13 May 2021
Orbit: 957 x 1005 km, 82.9° (Epoch: 22 June)

Event Time Altitude Azimuth Distance (km) Brightness Sun altitude
Rises 21:15:41 0° 350° (N) 3,691 8.6 -19.1°
Reaches altitude 10° 21:18:12 10° 351° (N) 2,746 7.5 -19.3°
Maximum altitude 21:24:32 85° 81° (E) 1,001 4.0 -19.6°
Enters shadow 21:27:31 34° 167° (SSE) 1,573 4.5 -19.8°
